Location: Newark
(45.5000°N, 11.4167°E)
Time: 18:00:48
(UTC+00:00)

Transit 2A Rocket - Pass Details

Date: 29 August 2019
Orbit: 592 x 911 km, 66.7° (Epoch: 14 September)

Event Time Altitude Azimuth Distance (km) Brightness Sun altitude
Rises 00:04:00 0° 334° (NNW) 3,050 8.7 -33.9°
Reaches altitude 10° 00:07:01 10° 352° (N) 2,074 7.9 -33.8°
Maximum altitude 00:10:21 19° 38° (NE) 1,503 7.1 -33.6°
Enters shadow 00:11:31 17° 59° (ENE) 1,564 7.0 -33.5°
Drops below altitude 10° 00:13:33 10° 85° (E) 1,970 - -33.4°
Sets 00:16:18 0° 104° (ESE) 2,843 - -33.3°
